User: anonymous   Login
Location: Wayah Bald
(35.1806°N, 83.5603°W)
Time: 05:13:26
(UTC-04:00)
Language:

Meteor 1-27 Rocket - Orbit

View from above orbital plane
View from above orbital plane
View from above satellite
View from above satellite

Ground track
Ground track

The orbit data is extracted from the following two-line orbital elements,

1 09904U 77024B   15124.52198179 -.00000080  00000-0 -55017-4 0  9999
2 09904 081.2609 158.3577 0054396 351.9207 008.1080 14.06785175953884
Epoch (UTC): 04 May 2015 12:31:39
Eccentricity: 0.0054396
inclination: 81.2609°
perigee height: 831 km
apogee height: 910 km
right ascension of ascending node: 158.3577°
argument of perigee: 351.9207°
revolutions per day: 14.06785175
mean anomaly at epoch: 8.1080°
orbit number at epoch: 95388

The dashed part of the orbit path shows where the satellite is in the earth's shadow,  

DLR